When you browse on this site, cookies collect data to enhance your experience and personalize the content and advertising you see.
Visit our Privacy Policy to learn more. By continuing to use the site, you agree to this use of cookies and data.
  • In Hungary
  • List of Countries
  • For 7 days
  • Water Temperature
  • Weather Map
  • News
  • Weather Widgets
  • user-avatar
    Login

    Hourly Weather Grand Bassam

    Today, 31 May, Sunday

    Time Temperature Precipitation Wind Pressure Humidity
    00:00 +27°C° 0 mm 3 mps 759 mmHg 91%
    01:00 +27°C° 0.8 mm 3 mps 759 mmHg 92%
    02:00 +27°C° 0.8 mm 3 mps 759 mmHg 93%
    03:00 +26°C° 0.8 mm 3 mps 758 mmHg 95%
    04:00 +26°C° 0.2 mm 2 mps 759 mmHg 94%
    05:00 +26°C° 0.2 mm 2 mps 759 mmHg 94%
    06:00 +26°C° 0 mm 3 mps 759 mmHg 93%
    07:00 +27°C° 0 mm 2 mps 759 mmHg 91%
    08:00 +27°C° 0 mm 1 mps 759 mmHg 89%
    09:00 +28°C° 0 mm 1 mps 759 mmHg 87%
    10:00 +29°C° 0 mm 1 mps 759 mmHg 79%
    11:00 +31°C° 0 mm 1 mps 759 mmHg 72%
    12:00 +32°C° 0 mm 1 mps 759 mmHg 64%
    13:00 +32°C° 0 mm 1 mps 759 mmHg 64%
    14:00 +32°C° 0 mm 2 mps 758 mmHg 63%
    15:00 +32°C° 0 mm 2 mps 757 mmHg 62%
    16:00 +31°C° 0 mm 2 mps 757 mmHg 67%
    17:00 +30°C° 0 mm 2 mps 757 mmHg 72%
    18:00 +29°C° 0 mm 2 mps 758 mmHg 77%
    19:00 +29°C° 0 mm 2 mps 758 mmHg 80%
    20:00 +28°C° 0 mm 2 mps 759 mmHg 83%
    21:00 +28°C° 0 mm 2 mps 759 mmHg 86%
    22:00 +28°C° 0.2 mm 2 mps 759 mmHg 87%
    23:00 +28°C° 0.2 mm 2 mps 760 mmHg 88%

    Tomorrow, 1 June, Monday

    Time Temperature Precipitation Wind Pressure Humidity
    00:00 +27°C° 0.2 mm 2 mps 760 mmHg 90%
    01:00 +27°C° 0.3 mm 2 mps 759 mmHg 90%
    02:00 +27°C° 0.3 mm 2 mps 759 mmHg 91%
    03:00 +27°C° 0.3 mm 1 mps 759 mmHg 92%
    04:00 +27°C° 0.5 mm 1 mps 759 mmHg 92%
    05:00 +26°C° 0.5 mm 1 mps 759 mmHg 92%
    06:00 +26°C° 0.5 mm 1 mps 759 mmHg 92%
    07:00 +28°C° 0 mm 1 mps 760 mmHg 86%
    08:00 +29°C° 0 mm 1 mps 760 mmHg 80%
    09:00 +31°C° 0 mm 1 mps 760 mmHg 73%
    10:00 +32°C° 0 mm 2 mps 760 mmHg 68%
    11:00 +34°C° 0 mm 2 mps 760 mmHg 63%
    12:00 +35°C° 0 mm 2 mps 760 mmHg 58%
    13:00 +34°C° 0.4 mm 3 mps 759 mmHg 63%
    14:00 +33°C° 0.4 mm 4 mps 759 mmHg 67%
    15:00 +32°C° 0.4 mm 4 mps 758 mmHg 71%
    16:00 +30°C° 0.1 mm 4 mps 758 mmHg 75%
    17:00 +29°C° 0.1 mm 4 mps 758 mmHg 79%
    18:00 +29°C° 0.1 mm 4 mps 758 mmHg 82%
    19:00 +28°C° 0 mm 4 mps 759 mmHg 85%
    20:00 +28°C° 0 mm 4 mps 759 mmHg 87%
    21:00 +28°C° 0 mm 4 mps 759 mmHg 90%
    22:00 +27°C° 0 mm 4 mps 759 mmHg 91%
    23:00 +27°C° 0 mm 3 mps 759 mmHg 91%

    Day after tomorrow, 2 June, Tuesday

    Time Temperature Precipitation Wind Pressure Humidity
    00:00 +27°C° 0 mm 3 mps 759 mmHg 92%
    01:00 +27°C° 0 mm 3 mps 759 mmHg 92%
    02:00 +27°C° 0 mm 3 mps 759 mmHg 92%
    03:00 +27°C° 0 mm 2 mps 759 mmHg 92%
    04:00 +27°C° 0.1 mm 2 mps 759 mmHg 92%
    05:00 +27°C° 0.1 mm 2 mps 759 mmHg 92%
    06:00 +27°C° 0.1 mm 2 mps 759 mmHg 92%
    07:00 +28°C° 0.1 mm 2 mps 760 mmHg 86%
    08:00 +29°C° 0.1 mm 3 mps 760 mmHg 80%
    09:00 +31°C° 0.1 mm 3 mps 760 mmHg 74%
    10:00 +31°C° 0 mm 3 mps 760 mmHg 72%
    11:00 +31°C° 0 mm 3 mps 760 mmHg 70%
    12:00 +33°C° 0 mm 3 mps 759 mmHg 68%
    13:00 +33°C° 0 mm 3 mps 759 mmHg 68%
    14:00 +32°C° 0 mm 4 mps 758 mmHg 68%
    15:00 +32°C° 0 mm 4 mps 757 mmHg 69%
    16:00 +32°C° 0.1 mm 4 mps 758 mmHg 73%
    17:00 +30°C° 0.1 mm 4 mps 758 mmHg 76%
    18:00 +29°C° 0.1 mm 4 mps 758 mmHg 80%
    19:00 +29°C° 0.7 mm 4 mps 758 mmHg 82%
    20:00 +28°C° 0.7 mm 3 mps 759 mmHg 84%
    21:00 +28°C° 0.7 mm 3 mps 759 mmHg 86%
    22:00 +28°C° 0.1 mm 3 mps 759 mmHg 87%
    23:00 +28°C° 0.1 mm 3 mps 759 mmHg 88%

    3 June, Wednesday

    Time Temperature Precipitation Wind Pressure Humidity
    00:00 +28°C° 0.1 mm 2 mps 759 mmHg 88%
    01:00 +28°C° 0 mm 2 mps 758 mmHg 89%
    02:00 +28°C° 0 mm 2 mps 758 mmHg 90%
    03:00 +27°C° 0 mm 2 mps 757 mmHg 90%
    04:00 +27°C° 0 mm 2 mps 758 mmHg 91%
    05:00 +27°C° 0 mm 2 mps 758 mmHg 92%
    06:00 +27°C° 0 mm 2 mps 758 mmHg 92%
    07:00 +28°C° 0.1 mm 2 mps 758 mmHg 87%
    08:00 +30°C° 0.1 mm 2 mps 759 mmHg 82%
    09:00 +31°C° 0.1 mm 2 mps 759 mmHg 77%
    10:00 +31°C° 0.4 mm 3 mps 759 mmHg 77%
    11:00 +31°C° 0.4 mm 3 mps 758 mmHg 76%
    12:00 +31°C° 0.4 mm 3 mps 758 mmHg 75%
    13:00 +32°C° 0 mm 4 mps 758 mmHg 73%
    14:00 +33°C° 0 mm 4 mps 757 mmHg 70%
    15:00 +33°C° 0 mm 4 mps 757 mmHg 68%
    16:00 +32°C° 0 mm 4 mps 757 mmHg 72%
    17:00 +30°C° 0 mm 4 mps 757 mmHg 76%
    18:00 +30°C° 0 mm 4 mps 757 mmHg 80%
    19:00 +29°C° 0 mm 4 mps 758 mmHg 82%
    20:00 +29°C° 0 mm 4 mps 758 mmHg 85%
    21:00 +28°C° 0 mm 4 mps 759 mmHg 88%
    22:00 +28°C° 0.1 mm 4 mps 758 mmHg 88%
    23:00 +28°C° 0.1 mm 4 mps 758 mmHg 88%

    4 June, Thursday

    Time Temperature Precipitation Wind Pressure Humidity
    00:00 +28°C° 0.1 mm 4 mps 758 mmHg 88%
    01:00 +28°C° 0.1 mm 4 mps 758 mmHg 88%
    02:00 +28°C° 0.1 mm 4 mps 757 mmHg 88%
    03:00 +28°C° 0.1 mm 4 mps 757 mmHg 88%
    04:00 +28°C° 0.4 mm 3 mps 757 mmHg 89%
    05:00 +28°C° 0.4 mm 3 mps 758 mmHg 90%
    06:00 +27°C° 0.4 mm 3 mps 758 mmHg 90%
    07:00 +29°C° 0.6 mm 3 mps 758 mmHg 85%
    08:00 +30°C° 0.6 mm 3 mps 759 mmHg 79%
    09:00 +31°C° 0.6 mm 3 mps 759 mmHg 73%
    10:00 +31°C° 0.2 mm 3 mps 759 mmHg 72%
    11:00 +33°C° 0.2 mm 3 mps 759 mmHg 70%
    12:00 +33°C° 0.2 mm 4 mps 759 mmHg 69%
    13:00 +33°C° 0.1 mm 4 mps 758 mmHg 69%
    14:00 +33°C° 0.1 mm 4 mps 757 mmHg 69%
    15:00 +33°C° 0.1 mm 4 mps 757 mmHg 69%
    16:00 +32°C° 0 mm 4 mps 757 mmHg 72%
    17:00 +30°C° 0 mm 4 mps 757 mmHg 76%
    18:00 +29°C° 0 mm 5 mps 757 mmHg 80%
    19:00 +29°C° 0 mm 4 mps 758 mmHg 82%
    20:00 +29°C° 0 mm 4 mps 758 mmHg 85%
    21:00 +28°C° 0 mm 4 mps 759 mmHg 87%
    22:00 +28°C° 0 mm 4 mps 759 mmHg 88%
    23:00 +28°C° 0 mm 4 mps 758 mmHg 89%

    5 June, Friday

    Time Temperature Precipitation Wind Pressure Humidity
    00:00 +28°C° 0 mm 4 mps 758 mmHg 90%
    01:00 +27°C° 0 mm 3 mps 758 mmHg 91%
    02:00 +27°C° 0 mm 3 mps 758 mmHg 91%
    03:00 +27°C° 0 mm 3 mps 757 mmHg 92%
    04:00 +27°C° 0 mm 3 mps 758 mmHg 92%
    05:00 +27°C° 0 mm 2 mps 758 mmHg 92%
    06:00 +27°C° 0 mm 2 mps 758 mmHg 92%
    07:00 +29°C° 0.1 mm 2 mps 759 mmHg 84%
    08:00 +30°C° 0.1 mm 1 mps 759 mmHg 76%
    09:00 +32°C° 0.1 mm 1 mps 760 mmHg 67%
    10:00 +32°C° 0.2 mm 2 mps 759 mmHg 67%
    11:00 +32°C° 0.2 mm 2 mps 759 mmHg 66%
    12:00 +33°C° 0.2 mm 3 mps 759 mmHg 65%
    13:00 +33°C° 0.2 mm 3 mps 758 mmHg 65%
    14:00 +33°C° 0.2 mm 3 mps 758 mmHg 66%
    15:00 +33°C° 0.2 mm 4 mps 757 mmHg 66%
    16:00 +32°C° 0 mm 4 mps 758 mmHg 70%
    17:00 +30°C° 0 mm 4 mps 758 mmHg 75%
    18:00 +29°C° 0 mm 4 mps 758 mmHg 79%
    19:00 +29°C° 0 mm 4 mps 759 mmHg 81%
    20:00 +29°C° 0 mm 4 mps 759 mmHg 84%
    21:00 +28°C° 0 mm 4 mps 760 mmHg 86%
    22:00 +28°C° 0 mm 4 mps 759 mmHg 87%
    23:00 +28°C° 0 mm 4 mps 759 mmHg 88%
    Show more